QPF
0.00 0.00 0.00 0.00 0.00 0.00 0.00 0.00 0.00 0.01 0.00 0.00 0.00 0.00 0.00 0.00 0.00 0.00 0.00 0.00 0.00 0.00 0.00 0.00 0.00 0.00 0.00 0.00 0.00 0.01 0.01 0.02 0.02 0.02 0.02 0.02 0.01 0.01
0.00 0.00 0.00 0.00 0.00 0.00 0.00 0.00 0.00 0.00 0.00 0.00 0.00 0.00 0.00 0.00 0.00 0.00 0.00 0.00 0.00 0.00 0.00 0.00 0.00 0.00 0.01 0.01 0.01 0.01 0.01 0.02 0.02 0.02 0.03 0.02 0.02 0.01
0.00 0.00 0.00 0.00 0.00 0.00 0.00 0.00 0.00 0.00 0.00 0.00 0.00 0.00 0.00 0.00 0.00 0.00 0.00 0.00 0.00 0.00 0.00 0.00 0.01 0.01 0.02 0.02 0.02 0.02 0.02 0.02 0.03 0.03 0.03 0.03 0.02 0.02
0.00 0.00 0.00 0.00 0.00 0.00 0.00 0.00 0.00 0.00 0.00 0.00 0.00 0.00 0.00 0.00 0.00 0.00 0.00 0.00 0.00 0.00 0.00 0.01 0.01 0.02 0.02 0.02 0.02 0.02 0.02 0.02 0.02 0.02 0.03 0.03 0.03 0.02
0.00 0.00 0.00 0.00 0.00 0.00 0.00 0.00 0.00 0.00 0.00 0.00 0.00 0.00 0.00 0.00 0.00 0.00 0.00 0.00 0.00 0.00 0.00 0.00 0.01 0.01 0.02 0.02 0.02 0.02 0.01 0.01 0.01 0.01 0.02 0.02 0.02 0.02
0.00 0.00 0.00 0.00 0.00 0.00 0.00 0.00 0.00 0.00 0.00 0.01 0.01 0.00 0.00 0.00 0.00 0.00 0.00 0.00 0.00 0.00 0.00 0.00 0.00 0.01 0.01 0.01 0.01 0.01 0.01 0.01 0.01 0.01 0.01 0.01 0.01 0.01
0.00 0.00 0.00 0.00 0.00 0.00 0.01 0.01 0.01 0.01 0.01 0.02 0.02 0.02 0.01 0.01 0.01 0.01 0.01 0.01 0.00 0.00 0.00 0.00 0.00 0.00 0.00 0.01 0.01 0.01 0.02 0.01 0.01 0.01 0.00 0.00 0.00 0.00
0.00 0.00 0.00 0.00 0.00 0.00 0.00 0.01 0.02 0.03 0.03 0.04 0.04 0.03 0.02 0.01 0.02 0.02 0.02 0.02 0.02 0.01 0.01 0.01 0.00 0.00 0.00 0.00 0.00 0.01 0.01 0.01 0.01 0.01 0.00 0.00 0.00 0.00
0.00 0.00 0.00 0.00 0.00 0.00 0.00 0.00 0.00 0.01 0.02 0.04 0.04 0.04 0.03 0.03 0.04 0.05 0.05 0.05 0.04 0.02 0.03 0.03 0.01 0.01 0.00 0.01 0.01 0.01 0.00 0.00 0.01 0.01 0.01 0.00 0.00 0.00
0.00 0.00 0.00 0.00 0.00 0.01 0.00 0.00 0.00 0.00 0.01 0.02 0.02 0.03 0.03 0.04 0.05 0.06 0.07 0.06 0.03 0.02 0.04 0.05 0.03 0.01 0.01 0.01 0.01 0.01 0.01 0.01 0.01 0.01 0.01 0.00 0.00 0.00
0.00 0.00 0.00 0.00 0.00 0.01 0.01 0.01 0.01 0.00 0.01 0.01 0.02 0.03 0.04 0.05 0.06 0.06 0.07 0.06 0.04 0.02 0.03 0.06 0.05 0.02 0.01 0.01 0.01 0.02 0.02 0.02 0.02 0.02 0.02 0.01 0.01 0.01
0.00 0.00 0.00 0.00 0.01 0.01 0.01 0.01 0.01 0.01 0.01 0.01 0.01 0.02 0.03 0.04 0.06 0.05 0.06 0.07 0.06 0.05 0.04 0.05 0.05 0.04 0.03 0.02 0.01 0.02 0.02 0.03 0.03 0.02 0.02 0.03 0.02 0.02
0.00 0.00 0.00 0.00 0.00 0.01 0.01 0.01 0.02 0.02 0.02 0.02 0.03 0.02 0.03 0.03 0.03 0.04 0.05 0.06 0.08 0.07 0.06 0.07 0.06 0.05 0.05 0.03 0.01 0.02 0.02 0.02 0.03 0.03 0.03 0.04 0.03 0.03
0.01 0.01 0.01 0.01 0.01 0.01 0.01 0.01 0.01 0.02 0.03 0.03 0.04 0.05 0.05 0.04 0.03 0.03 0.03 0.05 0.06 0.07 0.07 0.08 0.07 0.06 0.06 0.04 0.02 0.02 0.02 0.03 0.03 0.03 0.03 0.04 0.04 0.04
0.01 0.01 0.01 0.01 0.01 0.01 0.01 0.01 0.02 0.02 0.03 0.04 0.05 0.05 0.05 0.04 0.03 0.02 0.02 0.04 0.05 0.06 0.06 0.06 0.07 0.06 0.06 0.06 0.05 0.04 0.04 0.03 0.04 0.03 0.04 0.04 0.03 0.03
0.01 0.01 0.01 0.01 0.01 0.01 0.01 0.02 0.02 0.03 0.03 0.04 0.04 0.04 0.03 0.03 0.02 0.02 0.02 0.02 0.03 0.04 0.05 0.06 0.06 0.06 0.07 0.07 0.07 0.07 0.06 0.06 0.05 0.05 0.05 0.05 0.04 0.03
0.01 0.01 0.00 0.00 0.01 0.01 0.01 0.02 0.03 0.03 0.03 0.02 0.02 0.02 0.02 0.02 0.02 0.01 0.01 0.01 0.02 0.03 0.04 0.05 0.05 0.05 0.05 0.06 0.08 0.08 0.08 0.09 0.09 0.08 0.08 0.08 0.07 0.05
0.01 0.00 0.01 0.01 0.02 0.02 0.02 0.03 0.03 0.04 0.03 0.02 0.01 0.01 0.01 0.01 0.01 0.01 0.01 0.01 0.02 0.02 0.03 0.04 0.04 0.03 0.03 0.05 0.10 0.12 0.11 0.13 0.12 0.10 0.08 0.09 0.10 0.08
0.00 0.01 0.01 0.02 0.02 0.02 0.03 0.03 0.03 0.03 0.03 0.02 0.01 0.01 0.01 0.01 0.01 0.01 0.01 0.01 0.02 0.02 0.03 0.02 0.02 0.02 0.02 0.07 0.12 0.15 0.15 0.14 0.13 0.12 0.10 0.10 0.12 0.12
0.01 0.01 0.02 0.02 0.03 0.02 0.03 0.03 0.02 0.03 0.03 0.02 0.02 0.01 0.01 0.01 0.01 0.01 0.01 0.01 0.01 0.01 0.01 0.01 0.02 0.02 0.03 0.06 0.14 0.19 0.16 0.12 0.11 0.12 0.11 0.11 0.14 0.15
0.01 0.02 0.02 0.02 0.03 0.02 0.02 0.02 0.02 0.02 0.02 0.01 0.01 0.01 0.01 0.01 0.01 0.01 0.01 0.01 0.01 0.01 0.02 0.02 0.03 0.03 0.02 0.02 0.07 0.14 0.18 0.17 0.13 0.11 0.10 0.11 0.11 0.09
0.02 0.02 0.02 0.02 0.02 0.02 0.02 0.01 0.01 0.01 0.01 0.01 0.01 0.01 0.01 0.01 0.01 0.01 0.01 0.01 0.01 0.01 0.02 0.02 0.02 0.01 0.01 0.02 0.05 0.11 0.14 0.15 0.15 0.15 0.12 0.07 0.05 0.05
0.03 0.02 0.02 0.01 0.02 0.01 0.01 0.00 0.00 0.00 0.00 0.00 0.00 0.00 0.00 0.01 0.01 0.01 0.01 0.00 0.00 0.00 0.01 0.01 0.01 0.01 0.01 0.01 0.02 0.04 0.05 0.05 0.05 0.07 0.11 0.09 0.05 0.04
MSLP
1021.45 1021.57 1021.66 1021.71 1021.69 1021.59 1021.41 1021.16 1020.87 1020.54 1020.20 1019.87 1019.54 1019.23 1018.93 1018.64 1018.36 1018.09 1017.83 1017.59 1017.37 1017.16 1016.95 1016.74 1016.50 1016.24 1015.94 1015.61 1015.27 1014.93 1014.62 1014.37 1014.20 1014.13 1014.15 1014.24 1014.40 1014.58
1021.60 1021.66 1021.70 1021.68 1021.60 1021.44 1021.20 1020.91 1020.57 1020.20 1019.83 1019.46 1019.09 1018.74 1018.38 1018.04 1017.70 1017.37 1017.06 1016.77 1016.52 1016.29 1016.09 1015.89 1015.69 1015.47 1015.21 1014.93 1014.62 1014.30 1014.01 1013.76 1013.59 1013.50 1013.50 1013.59 1013.74 1013.93
1021.70 1021.72 1021.70 1021.62 1021.48 1021.27 1020.98 1020.65 1020.28 1019.88 1019.48 1019.08 1018.68 1018.28 1017.88 1017.48 1017.08 1016.68 1016.30 1015.96 1015.65 1015.39 1015.16 1014.96 1014.77 1014.57 1014.35 1014.10 1013.83 1013.55 1013.28 1013.05 1012.88 1012.80 1012.80 1012.89 1013.05 1013.26
1021.75 1021.72 1021.65 1021.52 1021.33 1021.07 1020.74 1020.37 1019.97 1019.56 1019.14 1018.71 1018.29 1017.85 1017.41 1016.95 1016.48 1016.01 1015.56 1015.14 1014.77 1014.45 1014.18 1013.95 1013.75 1013.55 1013.35 1013.13 1012.89 1012.64 1012.40 1012.20 1012.06 1011.99 1012.02 1012.13 1012.32 1012.56
1021.74 1021.67 1021.55 1021.37 1021.12 1020.82 1020.46 1020.06 1019.64 1019.20 1018.76 1018.31 1017.86 1017.39 1016.91 1016.40 1015.87 1015.34 1014.82 1014.33 1013.89 1013.50 1013.17 1012.90 1012.66 1012.45 1012.24 1012.03 1011.81 1011.59 1011.39 1011.23 1011.12 1011.09 1011.16 1011.31 1011.54 1011.84
1021.67 1021.55 1021.38 1021.15 1020.86 1020.51 1020.11 1019.68 1019.23 1018.77 1018.30 1017.84 1017.36 1016.87 1016.35 1015.80 1015.23 1014.65 1014.07 1013.52 1013.01 1012.56 1012.17 1011.84 1011.56 1011.32 1011.09 1010.88 1010.67 1010.47 1010.31 1010.18 1010.12 1010.15 1010.26 1010.47 1010.76 1011.10
1021.55 1021.37 1021.14 1020.86 1020.52 1020.12 1019.69 1019.22 1018.74 1018.25 1017.76 1017.27 1016.77 1016.26 1015.71 1015.14 1014.55 1013.94 1013.33 1012.74 1012.18 1011.68 1011.24 1010.85 1010.52 1010.24 1009.98 1009.75 1009.55 1009.37 1009.24 1009.16 1009.15 1009.23 1009.40 1009.66 1010.00 1010.40
1021.37 1021.13 1020.84 1020.51 1020.12 1019.68 1019.20 1018.70 1018.18 1017.67 1017.15 1016.64 1016.12 1015.59 1015.03 1014.46 1013.86 1013.25 1012.63 1012.03 1011.45 1010.92 1010.44 1010.01 1009.63 1009.30 1009.01 1008.76 1008.55 1008.39 1008.28 1008.23 1008.28 1008.41 1008.64 1008.95 1009.34 1009.77
1021.16 1020.85 1020.50 1020.11 1019.67 1019.18 1018.67 1018.13 1017.59 1017.04 1016.50 1015.97 1015.44 1014.90 1014.36 1013.79 1013.22 1012.63 1012.03 1011.44 1010.87 1010.33 1009.83 1009.37 1008.95 1008.58 1008.26 1007.98 1007.75 1007.59 1007.50 1007.48 1007.57 1007.75 1008.02 1008.37 1008.79 1009.24
1020.93 1020.55 1020.14 1019.69 1019.20 1018.69 1018.14 1017.58 1017.01 1016.44 1015.88 1015.34 1014.80 1014.28 1013.75 1013.22 1012.68 1012.13 1011.58 1011.03 1010.48 1009.95 1009.44 1008.96 1008.52 1008.11 1007.74 1007.43 1007.18 1007.01 1006.92 1006.93 1007.04 1007.25 1007.56 1007.94 1008.36 1008.81
1020.69 1020.25 1019.78 1019.29 1018.77 1018.23 1017.66 1017.08 1016.49 1015.92 1015.35 1014.80 1014.27 1013.76 1013.27 1012.78 1012.29 1011.80 1011.30 1010.80 1010.29 1009.78 1009.27 1008.77 1008.29 1007.84 1007.43 1007.08 1006.80 1006.61 1006.52 1006.53 1006.66 1006.90 1007.22 1007.61 1008.04 1008.47
1020.47 1019.97 1019.47 1018.94 1018.40 1017.84 1017.27 1016.68 1016.09 1015.51 1014.94 1014.40 1013.88 1013.40 1012.93 1012.49 1012.05 1011.62 1011.18 1010.72 1010.25 1009.76 1009.25 1008.73 1008.21 1007.72 1007.26 1006.86 1006.54 1006.32 1006.21 1006.23 1006.36 1006.61 1006.95 1007.35 1007.77 1008.19
1020.28 1019.75 1019.22 1018.68 1018.12 1017.56 1016.98 1016.40 1015.81 1015.23 1014.67 1014.13 1013.63 1013.17 1012.74 1012.34 1011.95 1011.56 1011.17 1010.75 1010.31 1009.82 1009.30 1008.76 1008.20 1007.65 1007.13 1006.68 1006.31 1006.05 1005.92 1005.93 1006.07 1006.33 1006.68 1007.09 1007.52 1007.93
1020.14 1019.59 1019.05 1018.50 1017.95 1017.38 1016.81 1016.23 1015.65 1015.07 1014.52 1014.00 1013.51 1013.07 1012.66 1012.29 1011.94 1011.59 1011.22 1010.83 1010.40 1009.91 1009.37 1008.79 1008.19 1007.58 1007.00 1006.49 1006.07 1005.78 1005.62 1005.62 1005.76 1006.02 1006.39 1006.81 1007.26 1007.69
1020.07 1019.52 1018.97 1018.43 1017.88 1017.32 1016.75 1016.17 1015.59 1015.02 1014.47 1013.95 1013.48 1013.04 1012.66 1012.30 1011.97 1011.65 1011.30 1010.92 1010.49 1009.99 1009.43 1008.81 1008.16 1007.50 1006.87 1006.30 1005.84 1005.50 1005.32 1005.30 1005.44 1005.71 1006.09 1006.54 1007.02 1007.48
1020.08 1019.53 1019.00 1018.46 1017.91 1017.35 1016.78 1016.20 1015.63 1015.05 1014.50 1013.99 1013.51 1013.09 1012.71 1012.37 1012.05 1011.73 1011.40 1011.02 1010.59 1010.08 1009.50 1008.85 1008.16 1007.46 1006.78 1006.17 1005.67 1005.30 1005.10 1005.06 1005.20 1005.48 1005.87 1006.34 1006.85 1007.34
1020.16 1019.64 1019.11 1018.58 1018.04 1017.48 1016.91 1016.32 1015.74 1015.16 1014.61 1014.09 1013.61 1013.19 1012.81 1012.48 1012.17 1011.87 1011.54 1011.17 1010.74 1010.23 1009.64 1008.99 1008.29 1007.56 1006.86 1006.23 1005.70 1005.31 1005.08 1005.03 1005.15 1005.43 1005.83 1006.31 1006.84 1007.37
1020.31 1019.81 1019.31 1018.79 1018.25 1017.69 1017.12 1016.53 1015.93 1015.35 1014.79 1014.27 1013.79 1013.37 1013.00 1012.68 1012.38 1012.09 1011.78 1011.43 1011.02 1010.53 1009.96 1009.33 1008.64 1007.93 1007.23 1006.59 1006.06 1005.65 1005.41 1005.34 1005.44 1005.69 1006.08 1006.55 1007.08 1007.62
1020.52 1020.06 1019.57 1019.06 1018.53 1017.98 1017.40 1016.81 1016.21 1015.63 1015.07 1014.55 1014.08 1013.66 1013.30 1012.99 1012.71 1012.44 1012.16 1011.85 1011.48 1011.03 1010.51 1009.92 1009.28 1008.61 1007.95 1007.33 1006.81 1006.40 1006.15 1006.05 1006.12 1006.34 1006.69 1007.13 1007.63 1008.15
1020.78 1020.34 1019.88 1019.39 1018.87 1018.32 1017.75 1017.17 1016.58 1016.00 1015.44 1014.93 1014.46 1014.06 1013.72 1013.42 1013.17 1012.93 1012.69 1012.43 1012.12 1011.74 1011.29 1010.78 1010.21 1009.61 1009.01 1008.44 1007.95 1007.55 1007.29 1007.17 1007.20 1007.37 1007.66 1008.04 1008.49 1008.96
1021.05 1020.65 1020.21 1019.74 1019.24 1018.71 1018.15 1017.58 1017.00 1016.43 1015.89 1015.39 1014.94 1014.55 1014.23 1013.96 1013.73 1013.53 1013.34 1013.13 1012.89 1012.59 1012.23 1011.81 1011.34 1010.83 1010.31 1009.81 1009.37 1009.00 1008.74 1008.60 1008.59 1008.70 1008.92 1009.23 1009.60 1010.00
1021.32 1020.95 1020.54 1020.09 1019.61 1019.09 1018.55 1018.00 1017.44 1016.89 1016.36 1015.88 1015.45 1015.08 1014.78 1014.53 1014.33 1014.17 1014.02 1013.87 1013.70 1013.48 1013.22 1012.90 1012.53 1012.13 1011.70 1011.28 1010.90 1010.57 1010.33 1010.18 1010.13 1010.19 1010.34 1010.57 1010.86 1011.18
1021.58 1021.22 1020.83 1020.40 1019.93 1019.44 1018.91 1018.38 1017.84 1017.31 1016.81 1016.34 1015.93 1015.58 1015.29 1015.06 1014.88 1014.74 1014.64 1014.53 1014.42 1014.28 1014.10 1013.88 1013.62 1013.31 1012.99 1012.66 1012.35 1012.07 1011.86 1011.71 1011.65 1011.67 1011.76 1011.93 1012.14 1012.39
Thickness
5536 5530 5525 5519 5514 5508 5503 5498 5497 5503 5507 5498 5488 5481 5473 5468 5465 5463 5460 5456 5454 5452 5451 5450 5449 5449 5449 5450 5452 5455 5460 5466 5472 5480 5488 5494 5501 5508
5519 5514 5509 5504 5498 5493 5488 5482 5478 5477 5483 5480 5471 5464 5458 5454 5451 5448 5445 5442 5440 5437 5435 5434 5433 5433 5433 5433 5435 5438 5442 5447 5453 5461 5468 5476 5485 5492
5502 5497 5492 5487 5482 5477 5472 5468 5463 5459 5463 5466 5456 5450 5444 5441 5438 5435 5432 5429 5427 5425 5424 5423 5422 5422 5421 5421 5422 5424 5428 5432 5438 5445 5452 5460 5468 5478
5486 5481 5476 5473 5467 5463 5459 5454 5450 5446 5444 5448 5446 5439 5434 5430 5428 5426 5423 5422 5420 5418 5417 5416 5415 5415 5414 5414 5414 5415 5418 5422 5426 5432 5439 5447 5456 5464
5470 5466 5462 5458 5455 5451 5446 5442 5439 5436 5432 5432 5433 5430 5426 5423 5422 5421 5419 5416 5415 5414 5413 5413 5412 5411 5411 5410 5410 5411 5412 5416 5419 5424 5429 5436 5444 5452
5457 5453 5450 5446 5444 5440 5436 5433 5429 5426 5423 5422 5423 5423 5421 5420 5417 5417 5417 5415 5413 5412 5411 5411 5410 5409 5409 5409 5408 5409 5410 5412 5415 5418 5423 5428 5435 5443
5445 5441 5438 5437 5435 5431 5428 5425 5421 5419 5417 5417 5417 5418 5417 5416 5415 5414 5413 5413 5412 5410 5411 5410 5409 5408 5408 5408 5407 5408 5409 5410 5412 5415 5418 5422 5428 5435
5434 5431 5428 5426 5424 5421 5418 5415 5413 5413 5413 5412 5413 5413 5414 5413 5412 5411 5409 5410 5411 5410 5407 5408 5407 5408 5408 5408 5408 5408 5408 5409 5410 5412 5415 5419 5424 5430
5423 5421 5419 5417 5415 5412 5410 5409 5408 5407 5407 5408 5410 5411 5411 5411 5410 5409 5408 5406 5406 5406 5404 5407 5407 5408 5409 5410 5409 5409 5408 5409 5409 5411 5413 5417 5421 5426
5415 5413 5410 5409 5408 5406 5405 5405 5406 5406 5407 5407 5407 5409 5408 5408 5406 5405 5404 5403 5403 5403 5402 5404 5407 5407 5409 5410 5410 5410 5410 5409 5410 5411 5413 5415 5419 5423
5407 5406 5404 5403 5402 5401 5402 5403 5405 5407 5408 5408 5408 5408 5407 5406 5404 5402 5401 5400 5401 5402 5401 5400 5403 5404 5407 5410 5411 5410 5410 5410 5411 5411 5413 5415 5417 5421
5400 5400 5399 5398 5399 5399 5401 5403 5406 5408 5409 5410 5410 5409 5407 5405 5403 5400 5398 5397 5397 5398 5398 5396 5398 5400 5404 5408 5409 5410 5410 5410 5411 5411 5412 5414 5416 5419
5394 5395 5396 5396 5398 5400 5401 5404 5405 5407 5409 5410 5409 5409 5407 5405 5403 5400 5398 5396 5395 5395 5395 5393 5395 5397 5399 5403 5407 5409 5409 5410 5411 5411 5412 5413 5415 5418
5389 5391 5393 5395 5398 5401 5404 5405 5407 5408 5409 5409 5409 5408 5406 5404 5402 5401 5399 5397 5395 5394 5393 5392 5393 5395 5398 5401 5405 5408 5409 5410 5411 5411 5412 5412 5413 5416
5386 5390 5393 5396 5400 5403 5405 5407 5408 5409 5409 5409 5408 5407 5405 5403 5402 5401 5400 5399 5397 5395 5394 5393 5393 5394 5397 5400 5403 5406 5408 5411 5411 5412 5412 5413 5413 5415
5386 5390 5394 5398 5401 5403 5406 5408 5409 5409 5408 5407 5406 5405 5404 5403 5402 5400 5399 5398 5397 5396 5395 5394 5394 5395 5397 5401 5404 5407 5409 5412 5413 5414 5414 5413 5414 5415
5385 5390 5394 5398 5401 5403 5406 5408 5409 5409 5409 5407 5406 5405 5404 5403 5401 5399 5398 5397 5395 5394 5394 5395 5397 5397 5397 5399 5405 5409 5412 5414 5415 5416 5416 5415 5414 5415
5386 5389 5393 5396 5398 5401 5404 5407 5408 5408 5408 5407 5406 5405 5404 5402 5401 5400 5398 5396 5395 5393 5393 5393 5396 5400 5401 5403 5402 5409 5413 5415 5416 5417 5417 5417 5415 5416
5386 5389 5391 5394 5397 5400 5403 5405 5407 5407 5408 5407 5406 5406 5404 5403 5401 5400 5398 5397 5395 5393 5392 5393 5395 5398 5401 5402 5403 5405 5411 5413 5415 5416 5416 5417 5416 5416
5386 5388 5391 5393 5396 5399 5402 5404 5406 5407 5408 5408 5408 5407 5406 5404 5402 5400 5398 5397 5395 5394 5394 5394 5395 5395 5397 5398 5400 5401 5406 5411 5413 5414 5414 5414 5414 5415
5386 5388 5390 5393 5396 5399 5402 5404 5406 5407 5408 5409 5409 5409 5408 5407 5405 5402 5400 5397 5396 5395 5395 5394 5393 5396 5399 5402 5403 5402 5402 5405 5409 5412 5413 5415 5416 5416
5386 5388 5391 5394 5397 5399 5402 5405 5407 5408 5409 5410 5411 5411 5410 5409 5407 5405 5402 5400 5398 5396 5395 5394 5395 5398 5400 5402 5401 5401 5402 5404 5406 5409 5411 5414 5416 5415
5386 5389 5392 5395 5397 5400 5403 5406 5408 5409 5410 5411 5412 5413 5414 5412 5410 5408 5405 5403 5400 5399 5397 5397 5397 5398 5398 5399 5400 5400 5401 5402 5404 5406 5404 5404 5408 5409